Weather in Kadnikovo

Russia / Sverdlovsk Oblast     56°35′01″N   60°54′36″E
temp.,
°C
wind,
m/s
gust,
m/s
humid.,
%
clouds,
%
prec.,
mm/h
press.,
hPa
HPBL,
m
9 may, sun
sun923:00+13nne2666100 0.0 1016132
02:00+12n2574100 0.0 1015114
05:00+12n1273100 0.0 101621
08:00+15nnw2255100 0.0 1016172
11:00+20ne2334100 0.0 1016912
14:00+20n1430100 0.0 10161730
17:00+21e2431100 0.0 10161475
20:00+17ene2647100 0.0 1018131
10 may, mon
mon1023:00+14sse2857100 0.0 1019216
02:00+12nne116799 0.0 102011
05:00+10ne237220 0.0 102256
08:00+15e364916 0.0 1023443
11:00+18ene463688 0.0 10231260
14:00+20ene462997 0.0 10241600
17:00+20ene34270 0.0 10241843
20:00+16e23420 0.0 102558
11 may, tue
tue1123:00+11sse22470 0.0 102612
02:00+9s11535 0.0 102710
05:00+8s115841 0.0 102810
08:00+14ssw124393 0.0 1028237
11:00+18s2229100 0.0 10291167
14:00+20ssw1226100 0.0 10281469
17:00+20wnw1227100 0.0 10281481
20:00+17s11405 0.0 102811
12 may, wed
wed1223:00+13sw22485 0.0 102920
02:00+12wnw245712 0.0 102955
05:00+10nw249199 0.0 103066
08:00+15nnw356999 0.0 1030465
11:00+19nnw343449 0.0 10301141
14:00+21n3432100 0.0 10291758
17:00+22n343544 0.0 10282103
20:00+18nnw1150100 0.0 102811
13 may, thu
thu1323:00+15nw226189 0.0 102926
02:00+12nw227417 0.0 102930
05:00+11wnw228049 0.0 103040
08:00+17nw245777 0.0 1029321
11:00+22nnw354168 0.0 10281632
14:00+25nnw46305 0.0 10272196
17:00+26nnw46295 0.0 10262391
20:00+21n22465 0.0 102742